Regional Weather Roundup
Issued by NWS

Home | Current Version | Previous Version | Graphics & Text | Print | Product List | Glossary On
Versions: 1 2 3 4 5 6 7 8 9 10 11 12 13 14 15 16 17 18 19 20 21 22 23 24 25 26 27 28 29 30 31 32 33 34 35 36 37 38 39 40 41 42 43 44 45 46 47 48 49 50
000
ASUS43 KDTX 031901
RWRMI
MICHIGAN HOURLY REGIONAL WEATHER ROUNDUP
NATIONAL WEATHER SERVICE DETROIT/PONTIAC MI
300 PM EDT WED JUN 03 2015

NOTE: "FAIR" INDICATES FEW OR NO CLOUDS BELOW 12,000 FEET WITH NO
SIGNIFICANT WEATHER AND/OR OBSTRUCTION TO VISIBILITY.

MIZ047>049-052>055-059>063-066>070-074>076-081>083-032000-
SOUTHEAST LOWER MICHIGAN

CITY           SKY/WX    TMP DP  RH WIND       PRES   REMARKS
ADRIAN         SUNNY     72  50  45 E12       30.09F
ALMA           SUNNY     74  51  44 SE5       30.08F
ANN ARBOR      SUNNY     72  52  49 S7        30.08F
BAD AXE        SUNNY     72  48  42 S6        30.11F
CARO           SUNNY     73  53  49 E8        30.09F
DETROIT CITY   SUNNY     70  52  52 SE12      30.10F
DETROIT        PTSUNNY   73  50  44 E7        30.09F
FLINT          SUNNY     75  53  46 CALM      30.08F
GROSSE ILE     SUNNY     66  59  77 S10       30.09F
HILLSDALE      CLOUDY    70  55  59 SE8       30.08F
HOWELL         MOSUNNY   72  52  49 SE8       30.08F

CITY           SKY/WX    TMP DP  RH WIND       PRES   REMARKS
JACKSON        PTSUNNY   69  55  60 SE9       30.07F
LAMBERTVILLE   SUNNY     70  50  49 E9G17     30.10F
LANSING        MOSUNNY   74  54  49 SE10      30.08F
LAPEER         FAIR      71  48  44 S7G16     30.10F
MASON          PTSUNNY   70  56  60 S8        30.08F
MONROE         SUNNY     70  48  46 E9        30.09F
MT. CLEMENS    MOSUNNY   70  54  56 SE8       30.10F
PONTIAC        PTSUNNY   73  49  42 SE8       30.08F
PORT HOPE        N/A     61  54  77 E18       30.11F
PORT HURON     SUNNY     72  48  43 MISG      30.11F
TRI CITIES     SUNNY     76  51  41 SE8       30.08F
MIDLAND        FAIR      74  49  40 S3        30.08F
TROY           SUNNY     74  48  40 E8G16     30.11F
SAGINAW HB     MOSUNNY   73  50  43 SE5       30.08F
$$
MIZ043>046-050>051-056>058-064>065-071>073-077>080-032000-
SOUTHWEST LOWER MICHIGAN

CITY           SKY/WX    TMP DP  RH WIND       PRES   REMARKS
BATTLE CREEK   MOSUNNY   72  53  51 VRB6      30.07F
BENTON HARBOR  SUNNY     70  55  59 NW5       30.04F
BIG RAPIDS     SUNNY     74  42  32 S8G17     30.05F
COLDWATER      CLOUDY    69  55  60 SE6       30.07F
FREMONT        FAIR      74  46  36 S8        30.04F
HOLLAND        SUNNY     73  54  51 W9        30.05F
GRAND RAPIDS   MOSUNNY   75  53  46 SE6       30.05F
IONIA          FAIR      74  51  44 S9        30.06F
KALAMAZOO      MOSUNNY   71  54  54 S8        30.07F
LUDINGTON      SUNNY     64  50  59 W9G16     30.06S
MARSHALL       CLOUDY    73  55  53 SE9       30.06F
MOUNT PLEASANT SUNNY     74  47  39 SE12      30.07F
MUSKEGON       PTSUNNY   70  49  47 W12       30.05F
SOUTH HAVEN    MOSUNNY   70  51  50 NW6       30.05S
$$
MIZ016>042-032000-
NORTHERN LOWER MICHIGAN

CITY           SKY/WX    TMP DP  RH WIND       PRES   REMARKS
ALPENA         SUNNY     71  44  37 SE13      30.10F
BEAVER ISLAND  SUNNY     71  47  42 W12       30.04F
BELLAIRE       SUNNY     78  37  22 S7G21     30.03F
CADILLAC       SUNNY     73  44  35 E8G17     30.05F
CHARLEVOIX     SUNNY     64  49  58 N10       30.06F
FRANKFORT      SUNNY     65  45  47 W10       30.05F
GAYLORD        SUNNY     74  39  28 S10G17    30.06F
GRAYLING       SUNNY     74  38  27 NW3       30.06F
HARBOR SPRINGS SUNNY     71  50  47 SW5       30.04F
HOUGHTON LAKE  SUNNY     74  41  30 S13       30.08F
MANISTEE       SUNNY     64  45  48 W13       30.05S
OSCODA         SUNNY     66  49  53 SE10      30.11F
PELLSTON       SUNNY     76  47  35 E8        30.04F
ROGERS CITY    MOSUNNY   73  47  40 SE13G20   30.08F
TRAVERSE CITY  MOSUNNY   78  42  27 VRB6      30.02F
$$
MIZ007>008-015-032000-
EASTERN UPPER MICHIGAN

CITY           SKY/WX    TMP DP  RH WIND       PRES   REMARKS
KINROSS        PTSUNNY   72  50  46 S12G20    30.06F
MACKINAC ISLAN SUNNY     63  49  60 E12       30.07F
NEWBERRY       SUNNY     68  50  51 S14       30.04S HAZE
S. S. MARIE    MOSUNNY   72  49  44 S10       30.04F
$$
MIZ004>006-011>014-085-032000-
CENTRAL UPPER MICHIGAN

CITY           SKY/WX    TMP DP  RH WIND       PRES   REMARKS
MANISTIQUE     MOSUNNY   58  44  60 SW13      30.04F
ESCANABA       SUNNY     64  52  63 S8        30.01S
MENOMINEE      MOSUNNY   70  52  52 S20G26    29.99F
SAWYER-GWINN   MOSUNNY   73  52  46 S17G26    29.96F
$$
MIZ001>003-009>011-084-032000-
WESTERN UPPER MICHIGAN

CITY           SKY/WX    TMP DP  RH WIND       PRES   REMARKS
IRON MOUNTAIN  MOSUNNY   76  50  40 S13G25    29.95F
HOUGHTON       CLOUDY    72  53  51 VRB3      29.91F
COPPER HARBOR    N/A     71  48  43 S9        29.91F
IRONWOOD       CLOUDY    72  55  56 S8        29.88R
$$

ABBREVIATIONS USED IN REMARKS
   TC - TEMPERATURE IN CELSIUS
  WCI - WIND CHILL INDEX
   HX - HEAT INDEX
  VSB - VISIBILITY




USA.gov is the U.S. government's official web portal to all federal, state and local government web resources and services.